"SCET";"TARGET";"ELECTRON_DENSITY";"ERROR_FLAG";"ELECTRON_DENSITY_ERROR";"FREQ_FCE";"MEASURED_VALUE";"MEASURED_ITEM";"FREQ_PLASMA";"FREQ_UPPER_HYBRID";"FREQ_R_EQUALS_ZERO";"FREQ_L_EQUALS_ZERO";"ORBIT_NUMBER";"SATURN_RADIUS";"SATURN_IAU_LONGITUDE";"SATURN_SLS4_S_LONGITUDE";"SATURN_SLS4_N_LONGITUDE";"SATURN_SLS5_S_LONGITUDE";"SATURN_SLS5_N_LONGITUDE";"SATURN_LOCAL_TIME";"SATURN_KRONOGRAPHIC_LATITUDE";"SATURN_MAGNETIC_LATITUDE";"SATURN_L";"SATURN_L_OFFSET";"SATURN_SOLAR_EQUATORIAL_X";"SATURN_SOLAR_EQUATORIAL_Y";"SATURN_SOLAR_EQUATORIAL_Z";"SATURN_ALTITUDE";"ENCELADUS_ENCOUNTER_NUMBER";"ENCELADUS_RADIUS";"ENCELADUS_COROTATIONAL_X";"ENCELADUS_COROTATIONAL_Y";"ENCELADUS_COROTATIONAL_Z";"ENCELADUS_TRUE_ANOMALY";"ENCELADUS_PERIAPSIS_TIME";"JUPITER_RADIUS";"JUPITER_SYSTEMIII_LONGITUDE";"JUPITER_MAGNETIC_LATITUDE";"JUPITER_MAGNETIC_LOCAL_TIME";"JUPITER_L";"IO_PHASE";"EARTH_RADIUS";"EARTH_MAGNETIC_LATITUDE";"EARTH_LOCAL_TIME";"EARTH_L"
"[UTC]";"[0=Saturn, 1=Enceladus, 2=Jupiter, 3=Earth]";"[cm-3]";"[0=automated, 1=manual]";"[normalized density error]";"[Hz]";"[Hz]";"[0=upper hybrid frequency, 1=plasma frequency cutoff]";"[Hz]";"[Hz]";"[Hz]";"[Hz}";"[0, A, B, C, 3, 4, ... , 292, 293]";"[Rs where 1Rs=60268km]";"[degrees]";"[degrees]";"[degrees]";"[degrees]";"[degrees]";"[hours]";"[degrees]";"[degrees where offset=2293km north]";"[Rs where 1Rs=60268km]";"[Rs where 1Rs=60268km and offset=2293km north]";"[Rs where 1Rs=60268km]";"[Rs where 1Rs=60268km]";"[Rs where 1Rs=60268km]";"[km where ellipsoid a,b=60268km and c=54364km]";"[E0, E1, E2, ... , E21, E22]";"[Renc where 1Renc=252.1km]";"[Renc where 1Renc=252.1km]";"[Renc where 1Renc=252.1km]";"[Renc where 1Renc=252.1km]";"[degrees]";"[UTC]";"[Rj where 1Rj=71492km]";"[degrees]";"[degrees using JRM09 model]";"[hours using JRM09 model]";"[Rj where 1Rj=71492km]";"[degrees]";"[Re where 1Re=6378.1366km]";"[degrees]";"[hours]";"[Re where 1Re=6378.1366km]"
2006-04-29T00:00:05.972Z;0;4.8480e+01;0;     0.075;  3224.004;  62610.254; 0;  62527.191;  62610.254;  64159.969;  60935.965; 23;   5.476; 341.398; 318.522; 193.800; 320.403; 181.004;  14.760;  -0.153;  -0.551;   5.476;   5.470;   4.107;   3.621;  -0.015;;;;;;;;;;;;;;;;;;
2006-04-29T00:00:13.972Z;0;4.8470e+01;0;     0.075;  3224.004;  62603.172; 0;  62520.102;  62603.172;  64152.879;  60928.875; 23;   5.476; 341.453; 318.576; 193.856; 320.457; 181.059;  14.761;  -0.153;  -0.551;   5.476;   5.470;   4.106;   3.623;  -0.015;;;;;;;;;;;;;;;;;;
2006-04-29T00:00:21.972Z;0;4.8540e+01;0;     0.079;  3224.004;  62647.441; 0;  62564.430;  62647.441;  64197.195;  60973.191; 23;   5.476; 341.508; 318.630; 193.911; 320.510; 181.114;  14.763;  -0.153;  -0.551;   5.476;   5.470;   4.105;   3.624;  -0.015;;;;;;;;;;;;;;;;;;
2006-04-29T00:00:29.972Z;0;4.8700e+01;0;     0.080;  3224.004;  62747.523; 0;  62664.645;  62747.523;  64297.375;  61073.371; 23;   5.476; 341.563; 318.683; 193.966; 320.564; 181.169;  14.764;  -0.153;  -0.551;   5.476;   5.470;   4.103;   3.626;  -0.015;;;;;;;;;;;;;;;;;;
2006-04-29T00:00:37.972Z;0;4.8690e+01;0;     0.078;  3224.004;  62742.688; 0;  62659.801;  62742.688;  64292.535;  61068.531; 23;   5.476; 341.618; 318.737; 194.022; 320.618; 181.224;  14.765;  -0.153;  -0.551;   5.476;   5.470;   4.102;   3.627;  -0.015;;;;;;;;;;;;;;;;;;
2006-04-29T00:00:45.972Z;0;4.8610e+01;0;     0.081;  3224.004;  62694.441; 0;  62611.492;  62694.441;  64244.242;  61020.238; 23;   5.476; 341.672; 318.791; 194.077; 320.671; 181.279;  14.767;  -0.153;  -0.551;   5.476;   5.470;   4.101;   3.629;  -0.015;;;;;;;;;;;;;;;;;;
2006-04-29T00:00:53.972Z;0;4.9020e+01;0;     0.080;  3224.004;  62957.059; 0;  62874.453;  62957.059;  64507.117;  61283.113; 23;   5.476; 341.727; 318.845; 194.132; 320.725; 181.334;  14.768;  -0.152;  -0.550;   5.476;   5.470;   4.100;   3.630;  -0.015;;;;;;;;;;;;;;;;;;
2006-04-29T00:01:01.971Z;0;4.8860e+01;0;     0.078;  3224.228;  62853.402; 0;  62770.648;  62853.402;  64403.461;  61179.234; 23;   5.476; 341.782; 318.898; 194.188; 320.779; 181.389;  14.769;  -0.152;  -0.550;   5.476;   5.470;   4.098;   3.632;  -0.015;;;;;;;;;;;;;;;;;;
2006-04-29T00:01:09.971Z;0;4.9010e+01;0;     0.079;  3224.228;  62950.914; 0;  62868.289;  62950.914;  64501.070;  61276.844; 23;   5.476; 341.837; 318.952; 194.243; 320.832; 181.444;  14.771;  -0.152;  -0.550;   5.476;   5.470;   4.097;   3.633;  -0.015;;;;;;;;;;;;;;;;;;
2006-04-29T00:01:17.971Z;0;4.8640e+01;0;     0.078;  3224.228;  62708.469; 0;  62625.523;  62708.469;  64258.387;  61034.156; 23;   5.476; 341.892; 319.006; 194.298; 320.886; 181.499;  14.772;  -0.152;  -0.550;   5.476;   5.470;   4.096;   3.634;  -0.015;;;;;;;;;;;;;;;;;;
2006-04-29T00:01:25.971Z;0;4.8440e+01;0;     0.079;  3224.228;  62583.164; 0;  62500.055;  62583.164;  64132.957;  60908.727; 23;   5.476; 341.946; 319.060; 194.354; 320.939; 181.554;  14.774;  -0.152;  -0.550;   5.476;   5.470;   4.094;   3.636;  -0.015;;;;;;;;;;;;;;;;;;
2006-04-29T00:01:33.971Z;0;4.8540e+01;0;     0.075;  3224.228;  62645.477; 0;  62562.449;  62645.477;  64195.332;  60971.102; 23;   5.476; 342.001; 319.113; 194.409; 320.993; 181.609;  14.775;  -0.152;  -0.550;   5.476;   5.470;   4.093;   3.637;  -0.015;;;;;;;;;;;;;;;;;;
2006-04-29T00:01:41.971Z;0;4.8170e+01;0;     0.076;  3224.228;  62409.766; 0;  62326.426;  62409.766;  63959.383;  60735.156; 23;   5.476; 342.056; 319.167; 194.464; 321.046; 181.663;  14.776;  -0.152;  -0.550;   5.476;   5.470;   4.092;   3.639;  -0.014;;;;;;;;;;;;;;;;;;
2006-04-29T00:01:49.971Z;0;4.8330e+01;0;     0.074;  3224.228;  62511.934; 0;  62428.730;  62511.934;  64061.656;  60837.426; 23;   5.476; 342.111; 319.221; 194.520; 321.100; 181.718;  14.778;  -0.152;  -0.550;   5.476;   5.470;   4.091;   3.640;  -0.014;;;;;;;;;;;;;;;;;;
2006-04-29T00:01:57.971Z;0;4.8490e+01;0;     0.077;  3224.228;  62617.465; 0;  62534.402;  62617.465;  64167.289;  60943.062; 23;   5.476; 342.166; 319.275; 194.575; 321.153; 181.773;  14.779;  -0.151;  -0.549;   5.476;   5.470;   4.089;   3.642;  -0.014;;;;;;;;;;;;;;;;;;
2006-04-29T00:02:05.971Z;0;4.8690e+01;0;     0.080;  3225.264;  62744.641; 0;  62661.691;  62744.641;  64295.070;  61069.809; 23;   5.476; 342.220; 319.329; 194.630; 321.207; 181.828;  14.780;  -0.151;  -0.549;   5.476;   5.470;   4.088;   3.643;  -0.014;;;;;;;;;;;;;;;;;;
2006-04-29T00:02:13.971Z;0;4.8690e+01;0;     0.077;  3225.264;  62746.305; 0;  62663.359;  62746.305;  64296.738;  61071.473; 23;   5.476; 342.275; 319.382; 194.686; 321.260; 181.883;  14.782;  -0.151;  -0.549;   5.476;   5.470;   4.087;   3.645;  -0.014;;;;;;;;;;;;;;;;;;
2006-04-29T00:02:21.971Z;0;4.8270e+01;0;     0.075;  3225.264;  62470.633; 0;  62387.320;  62470.633;  64020.789;  60795.527; 23;   5.476; 342.330; 319.436; 194.741; 321.314; 181.938;  14.783;  -0.151;  -0.549;   5.476;   5.470;   4.085;   3.646;  -0.014;;;;;;;;;;;;;;;;;;
2006-04-29T00:02:29.971Z;0;4.8340e+01;0;     0.073;  3225.264;  62516.113; 0;  62432.859;  62516.113;  64066.316;  60841.051; 23;   5.476; 342.385; 319.490; 194.796; 321.367; 181.992;  14.784;  -0.151;  -0.549;   5.476;   5.470;   4.084;   3.648;  -0.014;;;;;;;;;;;;;;;;;;
2006-04-29T00:02:37.971Z;0;4.8510e+01;0;     0.080;  3225.264;  62625.941; 0;  62542.836;  62625.941;  64176.254;  60950.988; 23;   5.476; 342.440; 319.544; 194.852; 321.421; 182.047;  14.786;  -0.151;  -0.549;   5.476;   5.470;   4.083;   3.649;  -0.014;;;;;;;;;;;;;;;;;;
2006-04-29T00:02:45.971Z;0;4.8590e+01;0;     0.076;  3225.264;  62680.297; 0;  62597.262;  62680.297;  64230.664;  61005.398; 23;   5.476; 342.495; 319.597; 194.907; 321.474; 182.102;  14.787;  -0.151;  -0.549;   5.476;   5.470;   4.082;   3.650;  -0.014;;;;;;;;;;;;;;;;;;
2006-04-29T00:02:53.971Z;0;4.8620e+01;0;     0.076;  3225.264;  62701.375; 0;  62618.367;  62701.375;  64251.762;  61026.500; 23;   5.476; 342.549; 319.651; 194.962; 321.527; 182.156;  14.788;  -0.151;  -0.549;   5.476;   5.470;   4.080;   3.652;  -0.014;;;;;;;;;;;;;;;;;;
2006-04-29T00:03:01.971Z;0;4.8710e+01;0;     0.081;  3225.236;  62758.910; 0;  62675.980;  62758.910;  64309.344;  61084.105; 23;   5.476; 342.604; 319.705; 195.018; 321.581; 182.211;  14.790;  -0.150;  -0.548;   5.476;   5.470;   4.079;   3.653;  -0.014;;;;;;;;;;;;;;;;;;
2006-04-29T00:03:09.971Z;0;4.8650e+01;0;     0.080;  3225.236;  62721.074; 0;  62638.094;  62721.074;  64271.469;  61046.234; 23;   5.476; 342.659; 319.759; 195.073; 321.634; 182.266;  14.791;  -0.150;  -0.548;   5.476;   5.470;   4.078;   3.655;  -0.014;;;;;;;;;;;;;;;;;;
2006-04-29T00:03:17.971Z;0;4.8340e+01;0;     0.074;  3225.236;  62518.738; 0;  62435.492;  62518.738;  64068.930;  60843.695; 23;   5.476; 342.714; 319.812; 195.128; 321.687; 182.320;  14.792;  -0.150;  -0.548;   5.476;   5.470;   4.076;   3.656;  -0.014;;;;;;;;;;;;;;;;;;
2006-04-29T00:03:25.971Z;0;4.8360e+01;0;     0.075;  3225.236;  62529.184; 0;  62445.949;  62529.184;  64079.387;  60854.152; 23;   5.476; 342.769; 319.866; 195.184; 321.741; 182.375;  14.794;  -0.150;  -0.548;   5.476;   5.470;   4.075;   3.658;  -0.014;;;;;;;;;;;;;;;;;;
2006-04-29T00:03:33.971Z;0;4.8640e+01;0;     0.079;  3225.236;  62712.047; 0;  62629.055;  62712.047;  64262.434;  61037.195; 23;   5.476; 342.823; 319.920; 195.239; 321.794; 182.430;  14.795;  -0.150;  -0.548;   5.476;   5.470;   4.074;   3.659;  -0.014;;;;;;;;;;;;;;;;;;
2006-04-29T00:03:41.970Z;0;4.8410e+01;0;     0.075;  3225.236;  62561.977; 0;  62478.785;  62561.977;  64112.211;  60886.977; 23;   5.476; 342.878; 319.974; 195.294; 321.847; 182.484;  14.796;  -0.150;  -0.548;   5.476;   5.470;   4.073;   3.661;  -0.014;;;;;;;;;;;;;;;;;;
2006-04-29T00:03:49.970Z;0;4.8600e+01;0;     0.075;  3225.236;  62683.387; 0;  62600.359;  62683.387;  64233.742;  61008.508; 23;   5.476; 342.933; 320.028; 195.350; 321.900; 182.539;  14.798;  -0.150;  -0.548;   5.476;   5.470;   4.071;   3.662;  -0.014;;;;;;;;;;;;;;;;;;
2006-04-29T00:03:57.970Z;0;4.8830e+01;0;     0.076;  3225.236;  62832.336; 0;  62749.504;  62832.336;  64382.840;  61157.605; 23;   5.476; 342.988; 320.081; 195.405; 321.954; 182.593;  14.799;  -0.150;  -0.548;   5.476;   5.470;   4.070;   3.663;  -0.014;;;;;;;;;;;;;;;;;;
2006-04-29T00:04:05.970Z;0;4.8380e+01;0;     0.075;  3226.664;  62544.531; 0;  62461.246;  62544.531;  64095.410;  60868.746; 23;   5.476; 343.043; 320.135; 195.460; 322.007; 182.648;  14.801;  -0.149;  -0.547;   5.476;   5.470;   4.069;   3.665;  -0.014;;;;;;;;;;;;;;;;;;
2006-04-29T00:04:13.970Z;0;4.8540e+01;0;     0.077;  3226.664;  62647.270; 0;  62564.121;  62647.270;  64198.250;  60971.586; 23;   5.476; 343.097; 320.189; 195.516; 322.060; 182.702;  14.802;  -0.149;  -0.547;   5.476;   5.470;   4.067;   3.666;  -0.014;;;;;;;;;;;;;;;;;;
2006-04-29T00:04:21.970Z;0;4.8570e+01;0;     0.076;  3226.664;  62665.742; 0;  62582.617;  62665.742;  64216.738;  60990.078; 23;   5.476; 343.152; 320.243; 195.571; 322.113; 182.757;  14.803;  -0.149;  -0.547;   5.476;   5.470;   4.066;   3.668;  -0.014;;;;;;;;;;;;;;;;;;
2006-04-29T00:04:29.970Z;0;4.8600e+01;0;     0.080;  3226.664;  62688.945; 0;  62605.852;  62688.945;  64239.965;  61013.301; 23;   5.476; 343.207; 320.296; 195.626; 322.166; 182.811;  14.805;  -0.149;  -0.547;   5.476;   5.470;   4.065;   3.669;  -0.014;;;;;;;;;;;;;;;;;;
2006-04-29T00:04:37.970Z;0;4.8450e+01;0;     0.078;  3226.664;  62588.188; 0;  62504.957;  62588.188;  64139.109;  60912.445; 23;   5.476; 343.262; 320.350; 195.682; 322.219; 182.866;  14.806;  -0.149;  -0.547;   5.476;   5.470;   4.064;   3.671;  -0.014;;;;;;;;;;;;;;;;;;
2006-04-29T00:04:45.970Z;0;4.8390e+01;0;     0.077;  3226.664;  62548.762; 0;  62465.480;  62548.762;  64099.645;  60872.980; 23;   5.476; 343.317; 320.404; 195.737; 322.273; 182.920;  14.807;  -0.149;  -0.547;   5.476;   5.470;   4.062;   3.672;  -0.014;;;;;;;;;;;;;;;;;;
2006-04-29T00:04:53.970Z;0;4.8410e+01;0;     0.074;  3226.664;  62563.707; 0;  62480.445;  62563.707;  64114.602;  60887.938; 23;   5.476; 343.371; 320.458; 195.792; 322.326; 182.975;  14.809;  -0.149;  -0.547;   5.476;   5.471;   4.061;   3.674;  -0.014;;;;;;;;;;;;;;;;;;
2006-04-29T00:05:01.970Z;0;4.8520e+01;0;     0.072;  3228.484;  62631.598; 0;  62548.332;  62631.598;  64183.402;  60954.918; 23;   5.476; 343.426; 320.512; 195.848; 322.379; 183.029;  14.810;  -0.149;  -0.547;   5.476;   5.471;   4.060;   3.675;  -0.014;;;;;;;;;;;;;;;;;;
2006-04-29T00:05:09.970Z;0;4.8310e+01;0;     0.073;  3228.484;  62500.438; 0;  62416.996;  62500.438;  64052.109;  60823.625; 23;   5.476; 343.481; 320.565; 195.903; 322.432; 183.083;  14.811;  -0.149;  -0.547;   5.476;   5.471;   4.058;   3.676;  -0.014;;;;;;;;;;;;;;;;;;
2006-04-29T00:05:17.970Z;0;4.8450e+01;0;     0.078;  3228.484;  62591.820; 0;  62508.504;  62591.820;  64143.586;  60915.102; 23;   5.476; 343.536; 320.619; 195.958; 322.485; 183.138;  14.813;  -0.148;  -0.546;   5.476;   5.471;   4.057;   3.678;  -0.014;;;;;;;;;;;;;;;;;;
2006-04-29T00:05:25.970Z;0;4.8500e+01;0;     0.077;  3228.484;  62620.832; 0;  62537.551;  62620.832;  64172.625;  60944.141; 23;   5.476; 343.591; 320.673; 196.014; 322.538; 183.192;  14.814;  -0.148;  -0.546;   5.476;   5.471;   4.056;   3.679;  -0.014;;;;;;;;;;;;;;;;;;
2006-04-29T00:05:33.970Z;0;4.8760e+01;0;     0.082;  3228.484;  62790.938; 0;  62707.883;  62790.938;  64342.898;  61114.414; 23;   5.476; 343.646; 320.727; 196.069; 322.591; 183.247;  14.815;  -0.148;  -0.546;   5.476;   5.471;   4.055;   3.681;  -0.014;;;;;;;;;;;;;;;;;;
2006-04-29T00:05:41.970Z;0;4.8260e+01;0;     0.077;  3228.484;  62465.637; 0;  62382.148;  62465.637;  64017.273;  60788.789; 23;   5.476; 343.700; 320.780; 196.124; 322.644; 183.301;  14.817;  -0.148;  -0.546;   5.476;   5.471;   4.053;   3.682;  -0.014;;;;;;;;;;;;;;;;;;
2006-04-29T00:05:49.970Z;0;4.8210e+01;0;     0.075;  3228.484;  62432.469; 0;  62348.938;  62432.469;  63984.074;  60755.590; 23;   5.476; 343.755; 320.834; 196.180; 322.697; 183.355;  14.818;  -0.148;  -0.546;   5.476;   5.471;   4.052;   3.684;  -0.014;;;;;;;;;;;;;;;;;;
2006-04-29T00:05:57.970Z;0;4.8090e+01;0;     0.074;  3228.484;  62359.289; 0;  62275.660;  62359.289;  63910.820;  60682.336; 23;   5.476; 343.810; 320.888; 196.235; 322.750; 183.409;  14.819;  -0.148;  -0.546;   5.476;   5.471;   4.051;   3.685;  -0.014;;;;;;;;;;;;;;;;;;
2006-04-29T00:06:05.970Z;0;4.8180e+01;0;     0.072;  3227.224;  62417.742; 0;  62334.258;  62417.742;  63968.750;  60741.527; 23;   5.476; 343.865; 320.942; 196.290; 322.803; 183.464;  14.821;  -0.148;  -0.546;   5.476;   5.471;   4.049;   3.687;  -0.014;;;;;;;;;;;;;;;;;;
2006-04-29T00:06:13.970Z;0;4.8420e+01;0;     0.076;  3227.224;  62567.219; 0;  62483.934;  62567.219;  64118.375;  60891.152; 23;   5.476; 343.920; 320.995; 196.346; 322.856; 183.518;  14.822;  -0.148;  -0.546;   5.476;   5.471;   4.048;   3.688;  -0.014;;;;;;;;;;;;;;;;;;
2006-04-29T00:06:21.969Z;0;4.8450e+01;0;     0.077;  3227.224;  62590.059; 0;  62506.805;  62590.059;  64141.238;  60914.016; 23;   5.476; 343.974; 321.049; 196.401; 322.909; 183.572;  14.823;  -0.147;  -0.545;   5.476;   5.471;   4.047;   3.689;  -0.014;;;;;;;;;;;;;;;;;;
2006-04-29T00:06:29.969Z;0;4.8730e+01;0;     0.075;  3227.224;  62767.113; 0;  62684.094;  62767.113;  64318.469;  61091.246; 23;   5.476; 344.029; 321.103; 196.456; 322.961; 183.626;  14.825;  -0.147;  -0.545;   5.476;   5.471;   4.046;   3.691;  -0.014;;;;;;;;;;;;;;;;;;
2006-04-29T00:06:37.969Z;0;4.8810e+01;0;     0.080;  3227.224;  62818.477; 0;  62735.523;  62818.477;  64369.887;  61142.660; 23;   5.476; 344.084; 321.157; 196.512; 323.014; 183.681;  14.826;  -0.147;  -0.545;   5.476;   5.471;   4.044;   3.692;  -0.014;;;;;;;;;;;;;;;;;;
2006-04-29T00:06:45.969Z;0;4.8540e+01;0;     0.078;  3227.224;  62647.758; 0;  62564.578;  62647.758;  64198.996;  60971.773; 23;   5.476; 344.139; 321.211; 196.567; 323.067; 183.735;  14.828;  -0.147;  -0.545;   5.476;   5.471;   4.043;   3.694;  -0.014;;;;;;;;;;;;;;;;;;
2006-04-29T00:06:53.969Z;0;4.8820e+01;0;     0.079;  3227.224;  62827.805; 0;  62744.863;  62827.805;  64379.223;  61152.000; 23;   5.476; 344.194; 321.264; 196.622; 323.120; 183.789;  14.829;  -0.147;  -0.545;   5.476;   5.471;   4.042;   3.695;  -0.014;;;;;;;;;;;;;;;;;;
2006-04-29T00:07:01.969Z;0;4.8510e+01;0;     0.075;  3230.136;  62627.520; 0;  62544.164;  62627.520;  64180.082;  60949.945; 23;   5.476; 344.248; 321.318; 196.678; 323.173; 183.843;  14.830;  -0.147;  -0.545;   5.476;   5.471;   4.040;   3.697;  -0.014;;;;;;;;;;;;;;;;;;
2006-04-29T00:07:09.969Z;0;4.8340e+01;0;     0.077;  3230.136;  62516.367; 0;  62432.863;  62516.367;  64068.816;  60838.680; 23;   5.476; 344.303; 321.372; 196.733; 323.226; 183.897;  14.832;  -0.147;  -0.545;   5.476;   5.471;   4.039;   3.698;  -0.014;;;;;;;;;;;;;;;;;;
2006-04-29T00:07:17.969Z;0;4.8190e+01;0;     0.074;  3230.136;  62422.570; 0;  62338.941;  62422.570;  63974.926;  60744.789; 23;   5.476; 344.358; 321.426; 196.788; 323.278; 183.951;  14.833;  -0.147;  -0.545;   5.476;   5.471;   4.038;   3.700;  -0.014;;;;;;;;;;;;;;;;;;
2006-04-29T00:07:25.969Z;0;4.8130e+01;0;     0.070;  3230.136;  62384.570; 0;  62300.891;  62384.570;  63936.887;  60706.754; 23;   5.476; 344.413; 321.479; 196.844; 323.331; 184.005;  14.834;  -0.146;  -0.544;   5.476;   5.471;   4.036;   3.701;  -0.014;;;;;;;;;;;;;;;;;;
2006-04-29T00:07:33.969Z;0;4.8280e+01;0;     0.072;  3230.136;  62479.188; 0;  62395.633;  62479.188;  64031.602;  60801.465; 23;   5.476; 344.468; 321.533; 196.899; 323.384; 184.060;  14.836;  -0.146;  -0.544;   5.476;   5.471;   4.035;   3.702;  -0.014;;;;;;;;;;;;;;;;;;
2006-04-29T00:07:41.969Z;0;4.8300e+01;0;     0.073;  3230.136;  62490.898; 0;  62407.359;  62490.898;  64043.324;  60813.188; 23;   5.476; 344.523; 321.587; 196.954; 323.437; 184.114;  14.837;  -0.146;  -0.544;   5.476;   5.471;   4.034;   3.704;  -0.014;;;;;;;;;;;;;;;;;;
2006-04-29T00:07:49.969Z;0;4.8210e+01;0;     0.074;  3230.136;  62435.770; 0;  62352.156;  62435.770;  63988.141;  60758.004; 23;   5.476; 344.577; 321.641; 197.010; 323.489; 184.168;  14.838;  -0.146;  -0.544;   5.476;   5.471;   4.033;   3.705;  -0.014;;;;;;;;;;;;;;;;;;
2006-04-29T00:07:57.969Z;0;4.8540e+01;0;     0.074;  3230.136;  62644.457; 0;  62561.125;  62644.457;  64197.035;  60966.898; 23;   5.476; 344.632; 321.695; 197.065; 323.542; 184.222;  14.840;  -0.146;  -0.544;   5.476;   5.471;   4.031;   3.707;  -0.014;;;;;;;;;;;;;;;;;;
2006-04-29T00:08:13.969Z;0;4.8070e+01;0;     0.070;  3231.648;  62342.691; 0;  62258.875;  62342.691;  63895.664;  60664.016; 23;   5.476; 344.742; 321.802; 197.176; 323.647; 184.330;  14.842;  -0.146;  -0.544;   5.476;   5.471;   4.029;   3.710;  -0.014;;;;;;;;;;;;;;;;;;
2006-04-29T00:08:21.969Z;0;4.8080e+01;0;     0.075;  3231.648;  62349.676; 0;  62265.871;  62349.676;  63902.656;  60671.008; 23;   5.476; 344.797; 321.856; 197.231; 323.700; 184.384;  14.844;  -0.146;  -0.544;   5.476;   5.471;   4.027;   3.711;  -0.014;;;;;;;;;;;;;;;;;;
2006-04-29T00:08:29.969Z;0;4.8130e+01;0;     0.075;  3231.648;  62382.453; 0;  62298.691;  62382.453;  63935.465;  60703.816; 23;   5.476; 344.851; 321.910; 197.286; 323.753; 184.438;  14.845;  -0.145;  -0.543;   5.476;   5.471;   4.026;   3.712;  -0.014;;;;;;;;;;;;;;;;;;
2006-04-29T00:08:37.969Z;0;4.8440e+01;0;     0.079;  3231.648;  62583.938; 0;  62500.445;  62583.938;  64137.152;  60905.504; 23;   5.476; 344.906; 321.963; 197.342; 323.805; 184.491;  14.846;  -0.145;  -0.543;   5.476;   5.471;   4.025;   3.714;  -0.014;;;;;;;;;;;;;;;;;;
2006-04-29T00:08:45.969Z;0;4.8530e+01;0;     0.078;  3231.648;  62644.262; 0;  62560.852;  62644.262;  64197.539;  60965.891; 23;   5.476; 344.961; 322.017; 197.397; 323.858; 184.545;  14.848;  -0.145;  -0.543;   5.476;   5.471;   4.024;   3.715;  -0.014;;;;;;;;;;;;;;;;;;
2006-04-29T00:08:53.968Z;0;4.8460e+01;0;     0.079;  3231.648;  62597.016; 0;  62513.543;  62597.016;  64150.246;  60918.598; 23;   5.476; 345.016; 322.071; 197.452; 323.910; 184.599;  14.849;  -0.145;  -0.543;   5.476;   5.471;   4.022;   3.717;  -0.014;;;;;;;;;;;;;;;;;;
2006-04-29T00:09:01.968Z;0;4.8480e+01;0;     0.078;  3231.508;  62610.633; 0;  62527.184;  62610.633;  64163.809;  60932.301; 23;   5.476; 345.071; 322.125; 197.508; 323.963; 184.653;  14.851;  -0.145;  -0.543;   5.477;   5.471;   4.021;   3.718;  -0.014;;;;;;;;;;;;;;;;;;
2006-04-29T00:09:09.968Z;0;4.8260e+01;0;     0.079;  3231.508;  62468.199; 0;  62384.559;  62468.199;  64021.234;  60789.727; 23;   5.476; 345.125; 322.179; 197.563; 324.015; 184.707;  14.852;  -0.145;  -0.543;   5.477;   5.471;   4.020;   3.720;  -0.014;;;;;;;;;;;;;;;;;;
2006-04-29T00:09:17.968Z;0;4.8550e+01;0;     0.083;  3231.508;  62654.320; 0;  62570.930;  62654.320;  64207.543;  60976.035; 23;   5.477; 345.180; 322.232; 197.618; 324.068; 184.761;  14.853;  -0.145;  -0.543;   5.477;   5.471;   4.018;   3.721;  -0.014;;;;;;;;;;;;;;;;;;
2006-04-29T00:09:25.968Z;0;4.7950e+01;0;     0.075;  3231.508;  62268.992; 0;  62185.086;  62268.992;  63821.824;  60590.316; 23;   5.477; 345.235; 322.286; 197.674; 324.120; 184.815;  14.855;  -0.145;  -0.543;   5.477;   5.471;   4.017;   3.723;  -0.014;;;;;;;;;;;;;;;;;;
2006-04-29T00:09:33.968Z;0;4.8170e+01;0;     0.075;  3231.508;  62408.676; 0;  62324.957;  62408.676;  63961.652;  60730.145; 23;   5.477; 345.290; 322.340; 197.729; 324.173; 184.868;  14.856;  -0.144;  -0.542;   5.477;   5.471;   4.016;   3.724;  -0.014;;;;;;;;;;;;;;;;;;
2006-04-29T00:09:41.968Z;0;4.8260e+01;0;     0.076;  3231.508;  62467.289; 0;  62383.648;  62467.289;  64020.324;  60788.816; 23;   5.477; 345.345; 322.394; 197.784; 324.225; 184.922;  14.857;  -0.144;  -0.542;   5.477;   5.471;   4.014;   3.725;  -0.014;;;;;;;;;;;;;;;;;;
2006-04-29T00:09:49.968Z;0;4.8310e+01;0;     0.080;  3231.508;  62500.398; 0;  62416.801;  62500.398;  64053.465;  60821.957; 23;   5.477; 345.400; 322.447; 197.840; 324.278; 184.976;  14.859;  -0.144;  -0.542;   5.477;   5.471;   4.013;   3.727;  -0.014;;;;;;;;;;;;;;;;;;
2006-04-29T00:09:57.968Z;0;4.8730e+01;0;     0.083;  3231.508;  62772.230; 0;  62688.996;  62772.230;  64325.570;  61094.062; 23;   5.477; 345.454; 322.501; 197.895; 324.330; 185.030;  14.860;  -0.144;  -0.542;   5.477;   5.471;   4.012;   3.728;  -0.014;;;;;;;;;;;;;;;;;;
2006-04-29T00:10:05.968Z;0;4.8370e+01;0;     0.081;  3228.288;  62537.102; 0;  62453.719;  62537.102;  64088.719;  60860.434; 23;   5.477; 345.509; 322.555; 197.950; 324.384; 185.085;  14.861;  -0.144;  -0.542;   5.477;   5.471;   4.011;   3.730;  -0.014;;;;;;;;;;;;;;;;;;
2006-04-29T00:10:13.968Z;0;4.8350e+01;0;     0.078;  3228.288;  62526.738; 0;  62443.344;  62526.738;  64078.348;  60850.059; 23;   5.477; 345.564; 322.609; 198.006; 324.437; 185.140;  14.863;  -0.144;  -0.542;   5.477;   5.471;   4.009;   3.731;  -0.014;;;;;;;;;;;;;;;;;;
2006-04-29T00:10:21.968Z;0;4.8420e+01;0;     0.081;  3228.288;  62572.453; 0;  62489.121;  62572.453;  64124.105;  60895.820; 23;   5.477; 345.619; 322.663; 198.061; 324.491; 185.195;  14.864;  -0.144;  -0.542;   5.477;   5.471;   4.008;   3.733;  -0.014;;;;;;;;;;;;;;;;;;
2006-04-29T00:10:29.968Z;0;4.8570e+01;0;     0.081;  3228.288;  62668.812; 0;  62585.605;  62668.812;  64220.562;  60992.273; 23;   5.477; 345.674; 322.716; 198.116; 324.545; 185.250;  14.865;  -0.144;  -0.542;   5.477;   5.471;   4.007;   3.734;  -0.014;;;;;;;;;;;;;;;;;;
2006-04-29T00:10:37.968Z;0;4.8690e+01;0;     0.082;  3228.288;  62746.719; 0;  62663.617;  62746.719;  64298.547;  61070.258; 23;   5.477; 345.728; 322.770; 198.172; 324.599; 185.305;  14.867;  -0.144;  -0.541;   5.477;   5.471;   4.005;   3.735;  -0.014;;;;;;;;;;;;;;;;;;
2006-04-29T00:10:45.968Z;0;4.8550e+01;0;     0.083;  3228.288;  62655.719; 0;  62572.496;  62655.719;  64207.457;  60979.168; 23;   5.477; 345.783; 322.824; 198.227; 324.653; 185.360;  14.868;  -0.143;  -0.541;   5.477;   5.471;   4.004;   3.737;  -0.014;;;;;;;;;;;;;;;;;;